Погода в Михновке

Россия / Смоленская область     54°45′21″N   31°57′28″E
темп.,
°C
ветер,
м/с
пор.,
м/с
влажн.,
%
обл.,
%
осадки,
мм/ч
давл.,
гПа
погр.,
м
17 апреля, сб
сб1700:00+9св599599 0.2 1017231
03:00+8всв3897100 1.0 1017229
06:00+6вюв349720 0.7 101896
09:00+10в34770 0.7 1020419
12:00+13всв465894 0.0 10201493
15:00+13ссв7871100 0.3 10191130
18:00+10ссв81485100 0.3 10161002
21:00+11всв61382100 1.8 1017689
18 апреля, вс
вс1800:00+10св8147892 0.9 1016785
03:00+9всв71381100 1.3 1017802
06:00+7в3691100 0.8 1018503
09:00+6св5691100 2.3 1019755
12:00+5св6894100 0.6 1020491
15:00+7св6787100 0.7 1021572
18:00+7св6783100 0.0 1021679
21:00+5всв5988100 0.0 1022604
19 апреля, пн
пн1900:00+5св5994100 0.0 1022548
03:00+5св51090100 0.0 1022477
06:00+5св51093100 0.0 1022492
09:00+6всв61088100 0.1 1022754
12:00+7всв6986100 0.1 1022975
15:00+7всв6986100 0.2 1022995
18:00+6всв61090100 0.1 1021842
21:00+5всв61193100 0.1 1021609
20 апреля, вт
вт2000:00+5всв61195100 0.0 1019719
03:00+4всв71294100 0.0 1018530
06:00+5всв71293100 0.3 1016880
09:00+5всв71091100 1.8 1015784
12:00+4всв71194100 0.0 1014663
15:00+3св61196100 0.0 1011533
18:00+2ссв71397100 0.8 1008490
21:00+1ссв71599100 5.1 1003536
21 апреля, ср
ср2100:00+1с71599100 5.2 998623
03:00+2ссз611100100 12.6 993360
06:00+4ссз34100100 3.0 99183
09:00+2з71199100 4.8 992364
12:00+1зюз81499100 2.3 996630
15:00+2юз91498100 4.1 1000848
18:00+3юз81398100 1.0 1004852
21:00+4юз71398100 1.4 1007855